Vorticity
7 7 8 8 8 8 8 8 8 8 9 10 10 9 8 8 8 8 7 9 10 10 9 9 9 11 12 13 12 12 12 11 12 15 14 13 12 14
6 7 7 7 7 7 8 8 7 7 8 9 10 9 10 9 9 8 7 7 7 9 9 9 11 11 12 13 13 13 13 11 11 12 14 13 13 12
8 8 9 7 6 7 7 6 7 7 8 10 10 10 10 9 9 9 8 8 8 8 8 8 9 11 12 13 13 14 13 12 11 10 11 13 14 12
11 10 10 7 7 7 6 5 6 6 7 8 9 10 12 11 10 9 8 7 8 8 8 11 13 13 13 13 13 14 12 11 12 10 10 9 9 8
11 10 11 8 9 8 7 6 7 7 7 6 8 5 7 9 9 9 8 7 8 8 8 12 12 12 12 13 14 13 13 11 11 11 11 9 9 10
9 10 11 11 11 9 8 9 8 8 8 7 7 10 4 9 7 7 9 8 8 8 8 8 12 13 13 13 14 13 12 11 11 11 11 9 9 9
11 12 12 11 10 10 10 11 10 9 10 2 13 6 7 11 8 6 7 9 8 8 6 10 12 13 13 13 13 12 12 11 12 11 12 13 12 11
10 11 12 12 12 12 13 12 10 10 13 19 9 5 22 9 6 5 9 9 8 5 8 16 13 14 12 12 12 12 11 13 13 13 12 11 10 10
10 9 8 9 9 11 11 9 10 10 6 13 13 8 3 16 6 7 13 7 8 8 11 13 17 16 12 11 12 12 12 12 12 12 12 12 10 9
10 10 10 11 11 10 8 8 12 11 13 10 5 13 17 15 6 9 11 9 7 8 12 13 15 18 10 12 12 11 12 13 13 11 9 9 9 9
10 11 11 11 14 12 11 12 13 13 10 6 11 9 10 16 6 9 12 9 9 9 14 14 21 14 13 12 11 12 12 13 10 8 8 10 11 11
10 11 12 12 11 11 10 10 11 12 12 10 9 10 6 8 8 12 13 12 7 11 16 12 18 12 13 11 12 13 15 12 7 8 10 13 12 9
8 10 11 12 11 10 10 11 13 12 12 11 10 11 10 11 13 14 20 7 10 9 14 12 18 9 12 14 10 12 15 8 5 6 6 4 5 5
9 10 11 13 11 12 12 11 11 10 11 12 12 12 13 14 14 17 10 10 9 12 12 16 13 9 10 13 9 10 21 9 9 8 7 6 7 7
13 13 11 9 10 8 10 11 11 11 10 10 12 13 14 14 12 14 15 10 10 13 16 11 11 10 10 11 10 11 14 15 6 8 8 7 8 7
18 16 12 10 4 7 8 10 9 10 10 10 11 14 13 14 15 17 12 8 11 15 14 12 10 10 10 9 10 8 13 20 5 9 9 9 9 8
22 20 19 14 10 8 7 7 8 8 9 10 13 16 15 13 18 15 8 11 11 18 14 12 12 10 9 8 10 7 14 17 8 8 11 9 7 6
18 20 23 24 23 9 10 11 7 8 9 10 13 15 15 17 16 9 11 12 15 12 14 11 11 10 9 9 9 10 13 13 7 9 9 8 5 5
18 17 19 21 24 21 11 6 11 17 11 10 14 16 18 16 10 10 13 15 12 14 11 12 10 10 10 9 11 13 15 16 12 9 7 7 6 7
12 21 18 14 18 19 13 10 12 15 11 10 15 17 16 12 9 14 15 10 15 12 13 11 11 9 8 9 8 13 15 13 14 14 14 13 13 13
15 12 21 18 19 22 14 12 11 12 11 11 16 15 15 9 14 14 10 15 11 11 11 11 11 9 9 8 8 9 12 16 14 14 13 12 13 12
8 20 12 21 17 15 17 13 12 11 11 13 14 16 10 14 14 11 15 11 10 10 10 12 12 9 9 9 7 7 8 11 15 16 13 12 12 11
16 15 16 10 19 24 11 17 11 10 11 13 16 12 14 13 11 14 11 11 10 11 10 11 11 11 11 10 8 8 8 8 10 12 12 14 13 13
Height
3070 3068 3066 3063 3060 3058 3055 3053 3050 3047 3047 3048 3043 3041 3037 3034 3031 3029 3027 3025 3024 3021 3019 3016 3014 3013 3012 3012 3010 3009 3007 3007 3007 3008 3010 3010 3011 3012
3062 3059 3057 3055 3053 3051 3048 3046 3043 3039 3037 3038 3036 3032 3029 3026 3023 3021 3019 3016 3014 3013 3010 3008 3005 3003 3002 3001 3001 3000 3000 3000 2999 3000 3000 3001 3003 3004
3053 3051 3050 3046 3044 3042 3040 3037 3035 3031 3028 3030 3027 3025 3021 3018 3015 3012 3010 3008 3006 3003 3001 2999 2996 2993 2992 2991 2990 2991 2991 2991 2991 2992 2992 2993 2994 2995
3045 3041 3040 3036 3035 3033 3030 3028 3027 3023 3020 3019 3020 3016 3014 3010 3007 3004 3001 2999 2996 2994 2991 2988 2986 2983 2982 2980 2980 2981 2980 2981 2982 2982 2983 2986 2987 2987
3035 3031 3029 3026 3024 3022 3020 3018 3016 3014 3011 3008 3008 3007 3005 3002 2998 2995 2993 2991 2988 2985 2982 2978 2975 2973 2972 2971 2971 2971 2972 2971 2971 2972 2974 2975 2977 2979
3025 3022 3020 3017 3014 3012 3009 3008 3006 3003 3001 2997 2996 2996 2995 2992 2987 2985 2985 2981 2979 2976 2973 2969 2966 2963 2962 2961 2961 2962 2962 2963 2963 2963 2964 2966 2967 2969
3016 3013 3010 3006 3003 3001 2998 2997 2993 2991 2990 2987 2985 2984 2984 2982 2977 2975 2973 2971 2970 2967 2963 2960 2956 2954 2951 2950 2951 2951 2952 2953 2954 2955 2956 2956 2958 2960
3005 3003 2999 2996 2993 2990 2987 2985 2983 2979 2978 2976 2974 2972 2973 2970 2967 2964 2962 2960 2958 2958 2953 2952 2946 2945 2942 2940 2941 2941 2942 2943 2945 2946 2947 2948 2949 2951
2995 2991 2988 2985 2982 2979 2975 2971 2969 2969 2967 2965 2961 2962 2960 2958 2954 2954 2951 2948 2947 2945 2940 2940 2938 2937 2933 2931 2931 2931 2932 2933 2935 2936 2938 2939 2941 2942
2984 2980 2976 2973 2971 2966 2962 2959 2958 2957 2956 2952 2950 2951 2948 2946 2944 2942 2940 2937 2936 2934 2931 2926 2928 2926 2923 2923 2922 2922 2923 2924 2925 2926 2928 2930 2932 2934
2972 2968 2964 2961 2959 2954 2950 2948 2946 2946 2944 2940 2938 2936 2935 2933 2932 2929 2928 2925 2923 2923 2920 2916 2918 2913 2914 2915 2913 2913 2914 2914 2916 2917 2919 2919 2921 2922
2959 2955 2952 2948 2945 2941 2938 2937 2934 2935 2931 2930 2927 2924 2922 2921 2919 2916 2915 2912 2911 2909 2911 2905 2906 2903 2903 2906 2905 2905 2905 2906 2907 2908 2909 2909 2910 2911
2943 2941 2939 2936 2930 2928 2925 2924 2923 2922 2919 2917 2916 2913 2911 2909 2907 2905 2902 2900 2900 2899 2898 2893 2895 2893 2893 2893 2896 2898 2897 2897 2898 2899 2899 2900 2900 2900
2926 2926 2924 2922 2918 2915 2913 2913 2911 2908 2906 2905 2903 2902 2900 2897 2895 2893 2891 2889 2890 2889 2888 2883 2884 2883 2882 2884 2884 2888 2889 2889 2890 2891 2890 2889 2889 2889
2910 2909 2908 2907 2905 2904 2902 2900 2898 2897 2894 2891 2891 2889 2888 2886 2883 2882 2881 2879 2879 2879 2877 2875 2874 2873 2872 2873 2874 2876 2877 2879 2880 2880 2880 2879 2879 2878
2894 2891 2890 2891 2891 2891 2890 2889 2886 2884 2882 2880 2878 2877 2875 2873 2872 2871 2870 2869 2868 2869 2868 2866 2864 2863 2863 2862 2862 2866 2867 2864 2868 2868 2866 2866 2867 2867
2878 2875 2874 2875 2877 2877 2877 2877 2875 2873 2870 2869 2866 2865 2863 2861 2861 2860 2859 2858 2858 2859 2859 2857 2855 2853 2853 2852 2852 2853 2853 2854 2855 2854 2853 2853 2854 2853
2862 2861 2861 2860 2861 2863 2863 2863 2862 2861 2859 2857 2855 2853 2852 2851 2850 2850 2849 2848 2848 2848 2848 2848 2846 2844 2843 2844 2843 2841 2841 2840 2842 2841 2840 2837 2837 2838
2851 2848 2848 2847 2847 2848 2849 2849 2849 2849 2847 2845 2844 2843 2842 2841 2840 2840 2839 2838 2839 2838 2839 2838 2837 2834 2833 2833 2836 2832 2829 2831 2828 2826 2825 2823 2820 2820
2841 2838 2836 2835 2835 2835 2837 2837 2837 2836 2835 2835 2834 2833 2832 2831 2831 2830 2830 2830 2829 2830 2830 2830 2829 2826 2823 2822 2819 2825 2823 2815 2813 2810 2809 2806 2803 2804
2832 2829 2826 2825 2823 2823 2825 2825 2825 2825 2825 2824 2824 2823 2822 2822 2822 2822 2821 2821 2821 2821 2822 2822 2820 2817 2816 2812 2810 2811 2813 2811 2804 2797 2793 2789 2787 2786
2822 2819 2817 2815 2814 2814 2814 2814 2814 2815 2815 2815 2814 2814 2813 2813 2813 2814 2814 2813 2813 2812 2813 2813 2812 2809 2807 2803 2800 2797 2797 2797 2795 2790 2784 2780 2774 2766
2812 2809 2808 2807 2806 2805 2805 2804 2805 2805 2806 2806 2805 2805 2805 2805 2806 2806 2806 2806 2805 2805 2804 2804 2803 2801 2799 2795 2790 2788 2786 2783 2780 2776 2774 2772 2765 2759